owner,sensor,date,latitude,longitude,air_pressure(mBar),qcFlag 
TABS,ioos:station:wmo:42047:1,2016-12-01T00:00:00Z,27.8966,-93.5973,1015.1,11111222 
TABS,ioos:station:wmo:42047:1,2016-12-01T00:30:00Z,27.8966,-93.5973,1015.77,11111222 
TABS,ioos:station:wmo:42047:1,2016-12-01T01:00:00Z,27.8966,-93.5973,1016.2,11111222 
TABS,ioos:station:wmo:42047:1,2016-12-01T01:30:00Z,27.8966,-93.5973,1016.21,11111222 
TABS,ioos:station:wmo:42047:1,2016-12-01T02:00:00Z,27.8966,-93.5973,1016.49,11111222 
TABS,ioos:station:wmo:42047:1,2016-12-01T02:30:00Z,27.8966,-93.5973,1016.58,11111222 
TABS,ioos:station:wmo:42047:1,2016-12-01T03:00:00Z,27.8966,-93.5973,1016.87,11111222 
TABS,ioos:station:wmo:42047:1,2016-12-01T03:30:00Z,27.8966,-93.5973,1017.12,11111222 
TABS,ioos:station:wmo:42047:1,2016-12-01T04:00:00Z,27.8966,-93.5973,1017.41,11111222 
TABS,ioos:station:wmo:42047:1,2016-12-01T04:30:00Z,27.8966,-93.5973,1017.52,11111222 
TABS,ioos:station:wmo:42047:1,2016-12-01T05:00:00Z,27.8966,-93.5973,1017.32,11111222 
TABS,ioos:station:wmo:42047:1,2016-12-01T05:30:00Z,27.8966,-93.5973,1017.56,11111222 
TABS,ioos:station:wmo:42047:1,2016-12-01T06:00:00Z,27.8966,-93.5973,1017.62,11111222 
TABS,ioos:station:wmo:42047:1,2016-12-01T06:30:00Z,27.8966,-93.5973,1017.5,11111222 
TABS,ioos:station:wmo:42047:1,2016-12-01T07:00:00Z,27.8966,-93.5973,1017.18,11111222 
TABS,ioos:station:wmo:42047:1,2016-12-01T07:30:00Z,27.8966,-93.5973,1017.32,11111222 
TABS,ioos:station:wmo:42047:1,2016-12-01T08:00:00Z,27.8966,-93.5973,1017.17,11111222 
TABS,ioos:station:wmo:42047:1,2016-12-01T08:30:00Z,27.8966,-93.5973,1017.11,11111222 
TABS,ioos:station:wmo:42047:1,2016-12-01T09:00:00Z,27.8966,-93.5973,1017.17,11111222 
TABS,ioos:station:wmo:42047:1,2016-12-01T09:30:00Z,27.8966,-93.5973,1017.12,11111222 
TABS,ioos:station:wmo:42047:1,2016-12-01T10:00:00Z,27.8966,-93.5973,1017.14,11111222 
TABS,ioos:station:wmo:42047:1,2016-12-01T10:30:00Z,27.8966,-93.5973,1017.34,11111222 
TABS,ioos:station:wmo:42047:1,2016-12-01T11:00:00Z,27.8966,-93.5973,1017.21,11111222 
TABS,ioos:station:wmo:42047:1,2016-12-01T11:30:00Z,27.8966,-93.5973,1017.3,11111222 
TABS,ioos:station:wmo:42047:1,2016-12-01T12:00:00Z,27.8966,-93.5973,1017.57,11111222 
TABS,ioos:station:wmo:42047:1,2016-12-01T12:30:00Z,27.8966,-93.5973,1018.08,11111222 
TABS,ioos:station:wmo:42047:1,2016-12-01T13:00:00Z,27.8966,-93.5973,1018.54,11111222 
TABS,ioos:station:wmo:42047:1,2016-12-01T13:30:00Z,27.8966,-93.5973,1018.84,11111222 
TABS,ioos:station:wmo:42047:1,2016-12-01T14:00:00Z,27.8966,-93.5973,1019.0,11111222 
TABS,ioos:station:wmo:42047:1,2016-12-01T14:30:00Z,27.8966,-93.5973,1019.28,11111222 
TABS,ioos:station:wmo:42047:1,2016-12-01T15:00:00Z,27.8966,-93.5973,1019.83,11111222 
TABS,ioos:station:wmo:42047:1,2016-12-01T15:30:00Z,27.8966,-93.5973,1020.36,11111222 
TABS,ioos:station:wmo:42047:1,2016-12-01T16:00:00Z,27.8966,-93.5973,1019.98,11111222 
TABS,ioos:station:wmo:42047:1,2016-12-01T16:30:00Z,27.8966,-93.5973,1020.03,11111222 
TABS,ioos:station:wmo:42047:1,2016-12-01T17:00:00Z,27.8966,-93.5973,1019.53,11111222 
TABS,ioos:station:wmo:42047:1,2016-12-01T17:30:00Z,27.8966,-93.5973,1019.07,11111222 
TABS,ioos:station:wmo:42047:1,2016-12-01T18:00:00Z,27.8966,-93.5973,1018.64,11111222 
TABS,ioos:station:wmo:42047:1,2016-12-01T18:30:00Z,27.8966,-93.5973,1018.39,11111222 
TABS,ioos:station:wmo:42047:1,2016-12-01T19:00:00Z,27.8966,-93.5973,1018.03,11111222 
TABS,ioos:station:wmo:42047:1,2016-12-01T19:30:00Z,27.8966,-93.5973,1017.98,11111222 
TABS,ioos:station:wmo:42047:1,2016-12-01T20:00:00Z,27.8966,-93.5973,1017.61,11111222 
TABS,ioos:station:wmo:42047:1,2016-12-01T20:30:00Z,27.8966,-93.5973,1017.08,11111222 
TABS,ioos:station:wmo:42047:1,2016-12-01T21:00:00Z,27.8966,-93.5973,1016.66,11111222 
TABS,ioos:station:wmo:42047:1,2016-12-01T21:30:00Z,27.8966,-93.5973,1016.6,11111222 
TABS,ioos:station:wmo:42047:1,2016-12-01T22:00:00Z,27.8966,-93.5973,1016.6,11111222 
TABS,ioos:station:wmo:42047:1,2016-12-01T22:30:00Z,27.8966,-93.5973,1016.76,11111222 
TABS,ioos:station:wmo:42047:1,2016-12-01T23:00:00Z,27.8966,-93.5973,1016.66,11111222 
TABS,ioos:station:wmo:42047:1,2016-12-01T23:30:00Z,27.8966,-93.5973,1016.58,11111222 
TABS,ioos:station:wmo:42047:1,2016-12-02T00:00:00Z,27.8966,-93.5973,1017.25,11111222 
TABS,ioos:station:wmo:42047:1,2016-12-02T00:30:00Z,27.8966,-93.5973,1017.58,11111222 
TABS,ioos:station:wmo:42047:1,2016-12-02T01:00:00Z,27.8966,-93.5973,1017.58,11111222 
TABS,ioos:station:wmo:42047:1,2016-12-02T01:30:00Z,27.8966,-93.5973,1017.52,11111222 
TABS,ioos:station:wmo:42047:1,2016-12-02T02:00:00Z,27.8966,-93.5973,1017.49,11111222 
TABS,ioos:station:wmo:42047:1,2016-12-02T02:30:00Z,27.8966,-93.5973,1017.29,11111222 
TABS,ioos:station:wmo:42047:1,2016-12-02T03:00:00Z,27.8966,-93.5973,1017.33,11111222 
TABS,ioos:station:wmo:42047:1,2016-12-02T03:30:00Z,27.8966,-93.5973,1017.31,11111222 
TABS,ioos:station:wmo:42047:1,2016-12-02T04:00:00Z,27.8966,-93.5973,1017.22,11111222 
TABS,ioos:station:wmo:42047:1,2016-12-02T04:30:00Z,27.8966,-93.5973,1017.62,11111222 
TABS,ioos:station:wmo:42047:1,2016-12-02T05:00:00Z,27.8966,-93.5973,1017.71,11111222 
TABS,ioos:station:wmo:42047:1,2016-12-02T05:30:00Z,27.8966,-93.5973,1017.48,11111222 
TABS,ioos:station:wmo:42047:1,2016-12-02T06:00:00Z,27.8966,-93.5973,1017.33,11111222 
TABS,ioos:station:wmo:42047:1,2016-12-02T06:30:00Z,27.8966,-93.5973,1017.32,11111222 
TABS,ioos:station:wmo:42047:1,2016-12-02T07:00:00Z,27.8966,-93.5973,1017.13,11111222 
TABS,ioos:station:wmo:42047:1,2016-12-02T07:30:00Z,27.8966,-93.5973,1016.82,11111222 
TABS,ioos:station:wmo:42047:1,2016-12-02T08:00:00Z,27.8966,-93.5973,1016.56,11111222 
TABS,ioos:station:wmo:42047:1,2016-12-02T08:30:00Z,27.8966,-93.5973,1016.46,11111222 
TABS,ioos:station:wmo:42047:1,2016-12-02T09:00:00Z,27.8966,-93.5973,1016.11,11111222 
TABS,ioos:station:wmo:42047:1,2016-12-02T09:30:00Z,27.8966,-93.5973,1016.51,11111222 
TABS,ioos:station:wmo:42047:1,2016-12-02T10:00:00Z,27.8966,-93.5973,1016.46,11111222 
TABS,ioos:station:wmo:42047:1,2016-12-02T10:30:00Z,27.8966,-93.5973,1016.45,11111222 
TABS,ioos:station:wmo:42047:1,2016-12-02T11:00:00Z,27.8966,-93.5973,1016.6,11111222 
TABS,ioos:station:wmo:42047:1,2016-12-02T11:30:00Z,27.8966,-93.5973,1016.79,11111222 
TABS,ioos:station:wmo:42047:1,2016-12-02T12:00:00Z,27.8966,-93.5973,1016.93,11111222 
TABS,ioos:station:wmo:42047:1,2016-12-02T12:30:00Z,27.8966,-93.5973,1017.28,11111222 
TABS,ioos:station:wmo:42047:1,2016-12-02T13:00:00Z,27.8966,-93.5973,1017.27,11111222 
TABS,ioos:station:wmo:42047:1,2016-12-02T13:30:00Z,27.8966,-93.5973,1017.39,11111222 
TABS,ioos:station:wmo:42047:1,2016-12-02T14:00:00Z,27.8966,-93.5973,1017.45,11111222 
TABS,ioos:station:wmo:42047:1,2016-12-02T14:30:00Z,27.8966,-93.5973,1017.38,11111222 
TABS,ioos:station:wmo:42047:1,2016-12-02T15:00:00Z,27.8966,-93.5973,1017.83,11111222 
TABS,ioos:station:wmo:42047:1,2016-12-02T15:30:00Z,27.8966,-93.5973,1016.87,11111222 
TABS,ioos:station:wmo:42047:1,2016-12-02T16:00:00Z,27.8966,-93.5973,1016.93,11111222 
TABS,ioos:station:wmo:42047:1,2016-12-02T16:30:00Z,27.8966,-93.5973,1017.0,11111222 
TABS,ioos:station:wmo:42047:1,2016-12-02T17:00:00Z,27.8966,-93.5973,1016.42,11111222 
TABS,ioos:station:wmo:42047:1,2016-12-02T17:30:00Z,27.8966,-93.5973,1015.93,11111222 
TABS,ioos:station:wmo:42047:1,2016-12-02T18:00:00Z,27.8966,-93.5973,1015.76,11111222 
TABS,ioos:station:wmo:42047:1,2016-12-02T18:30:00Z,27.8966,-93.5973,1015.02,11111222 
TABS,ioos:station:wmo:42047:1,2016-12-02T19:00:00Z,27.8966,-93.5973,1014.64,11111222 
TABS,ioos:station:wmo:42047:1,2016-12-02T19:30:00Z,27.8966,-93.5973,1014.77,11111222 
TABS,ioos:station:wmo:42047:1,2016-12-02T20:00:00Z,27.8966,-93.5973,1015.05,11111222 
TABS,ioos:station:wmo:42047:1,2016-12-02T20:30:00Z,27.8966,-93.5973,1014.45,11111222 
TABS,ioos:station:wmo:42047:1,2016-12-02T21:00:00Z,27.8966,-93.5973,1012.07,11111222 
TABS,ioos:station:wmo:42047:1,2016-12-02T21:30:00Z,27.8966,-93.5973,1012.71,11111222 
TABS,ioos:station:wmo:42047:1,2016-12-02T22:00:00Z,27.8966,-93.5973,1012.93,11111222 
TABS,ioos:station:wmo:42047:1,2016-12-02T22:30:00Z,27.8966,-93.5973,1013.26,11111222 
TABS,ioos:station:wmo:42047:1,2016-12-02T23:00:00Z,27.8966,-93.5973,1013.07,11111222 
TABS,ioos:station:wmo:42047:1,2016-12-02T23:30:00Z,27.8966,-93.5973,1014.16,11111222 
TABS,ioos:station:wmo:42047:1,2016-12-03T00:00:00Z,27.8966,-93.5973,1014.07,11111222 
TABS,ioos:station:wmo:42047:1,2016-12-03T00:30:00Z,27.8966,-93.5973,1014.42,11111222 
TABS,ioos:station:wmo:42047:1,2016-12-03T01:00:00Z,27.8966,-93.5973,1015.04,11111222 
TABS,ioos:station:wmo:42047:1,2016-12-03T01:30:00Z,27.8966,-93.5973,1015.47,11111222 
TABS,ioos:station:wmo:42047:1,2016-12-03T02:00:00Z,27.8966,-93.5973,1015.4,11111222 
TABS,ioos:station:wmo:42047:1,2016-12-03T02:30:00Z,27.8966,-93.5973,1015.59,11111222 
TABS,ioos:station:wmo:42047:1,2016-12-03T03:00:00Z,27.8966,-93.5973,1015.2,11111222 
TABS,ioos:station:wmo:42047:1,2016-12-03T03:30:00Z,27.8966,-93.5973,1015.08,11111222 
TABS,ioos:station:wmo:42047:1,2016-12-03T04:00:00Z,27.8966,-93.5973,1014.95,11111222 
TABS,ioos:station:wmo:42047:1,2016-12-03T04:30:00Z,27.8966,-93.5973,1014.85,11111222 
TABS,ioos:station:wmo:42047:1,2016-12-03T05:00:00Z,27.8966,-93.5973,1014.31,11111222 
TABS,ioos:station:wmo:42047:1,2016-12-03T05:30:00Z,27.8966,-93.5973,1014.52,11111222 
TABS,ioos:station:wmo:42047:1,2016-12-03T06:00:00Z,27.8966,-93.5973,1014.53,11111222 
TABS,ioos:station:wmo:42047:1,2016-12-03T06:30:00Z,27.8966,-93.5973,1013.76,11111222 
TABS,ioos:station:wmo:42047:1,2016-12-03T07:00:00Z,27.8966,-93.5973,1013.53,11111222 
TABS,ioos:station:wmo:42047:1,2016-12-03T07:30:00Z,27.8966,-93.5973,1013.57,11111222 
TABS,ioos:station:wmo:42047:1,2016-12-03T08:00:00Z,27.8966,-93.5973,1013.33,11111222 
TABS,ioos:station:wmo:42047:1,2016-12-03T08:30:00Z,27.8966,-93.5973,1013.18,11111222 
TABS,ioos:station:wmo:42047:1,2016-12-03T09:00:00Z,27.8966,-93.5973,1012.78,11111222 
TABS,ioos:station:wmo:42047:1,2016-12-03T09:30:00Z,27.8966,-93.5973,1012.41,11111222 
TABS,ioos:station:wmo:42047:1,2016-12-03T10:00:00Z,27.8966,-93.5973,1012.65,11111222 
TABS,ioos:station:wmo:42047:1,2016-12-03T10:30:00Z,27.8966,-93.5973,1012.52,11111222 
TABS,ioos:station:wmo:42047:1,2016-12-03T11:00:00Z,27.8966,-93.5973,1012.48,11111222 
TABS,ioos:station:wmo:42047:1,2016-12-03T11:30:00Z,27.8966,-93.5973,1012.39,11111222 
TABS,ioos:station:wmo:42047:1,2016-12-03T12:00:00Z,27.8966,-93.5973,1012.43,11111222 
TABS,ioos:station:wmo:42047:1,2016-12-03T12:30:00Z,27.8966,-93.5973,1012.6,11111222 
TABS,ioos:station:wmo:42047:1,2016-12-03T13:00:00Z,27.8966,-93.5973,1012.53,11111222 
TABS,ioos:station:wmo:42047:1,2016-12-03T13:30:00Z,27.8966,-93.5973,1013.3,11111222 
TABS,ioos:station:wmo:42047:1,2016-12-03T14:00:00Z,27.8966,-93.5973,1013.6,11111222 
TABS,ioos:station:wmo:42047:1,2016-12-03T14:30:00Z,27.8966,-93.5973,1013.85,11111222 
TABS,ioos:station:wmo:42047:1,2016-12-03T15:00:00Z,27.8966,-93.5973,1013.82,11111222 
TABS,ioos:station:wmo:42047:1,2016-12-03T15:30:00Z,27.8966,-93.5973,1013.58,11111222 
TABS,ioos:station:wmo:42047:1,2016-12-03T16:00:00Z,27.8966,-93.5973,1013.19,11111222 
TABS,ioos:station:wmo:42047:1,2016-12-03T16:30:00Z,27.8966,-93.5973,1012.58,11111222 
TABS,ioos:station:wmo:42047:1,2016-12-03T17:00:00Z,27.8966,-93.5973,1011.64,11111222 
TABS,ioos:station:wmo:42047:1,2016-12-03T17:30:00Z,27.8966,-93.5973,1011.58,11111222 
TABS,ioos:station:wmo:42047:1,2016-12-03T18:00:00Z,27.8966,-93.5973,1011.22,11111222 
TABS,ioos:station:wmo:42047:1,2016-12-03T18:30:00Z,27.8966,-93.5973,1011.44,11111222 
TABS,ioos:station:wmo:42047:1,2016-12-03T19:00:00Z,27.8966,-93.5973,1011.15,11111222 
TABS,ioos:station:wmo:42047:1,2016-12-03T19:30:00Z,27.8966,-93.5973,1010.68,11111222 
TABS,ioos:station:wmo:42047:1,2016-12-03T20:00:00Z,27.8966,-93.5973,1010.62,11111222 
TABS,ioos:station:wmo:42047:1,2016-12-03T20:30:00Z,27.8966,-93.5973,1010.43,11111222 
TABS,ioos:station:wmo:42047:1,2016-12-03T21:00:00Z,27.8966,-93.5973,1010.34,11111222 
TABS,ioos:station:wmo:42047:1,2016-12-03T21:30:00Z,27.8966,-93.5973,1009.97,11111222 
TABS,ioos:station:wmo:42047:1,2016-12-03T22:00:00Z,27.8966,-93.5973,1009.79,11111222 
TABS,ioos:station:wmo:42047:1,2016-12-03T22:30:00Z,27.8966,-93.5973,1009.66,11111222 
TABS,ioos:station:wmo:42047:1,2016-12-03T23:00:00Z,27.8966,-93.5973,1009.59,11111222 
TABS,ioos:station:wmo:42047:1,2016-12-03T23:30:00Z,27.8966,-93.5973,1009.62,11111222 
TABS,ioos:station:wmo:42047:1,2016-12-04T00:00:00Z,27.8966,-93.5973,1009.97,11111222 
TABS,ioos:station:wmo:42047:1,2016-12-04T00:30:00Z,27.8966,-93.5973,1010.07,11111222 
TABS,ioos:station:wmo:42047:1,2016-12-04T01:00:00Z,27.8966,-93.5973,1010.3,11111222 
TABS,ioos:station:wmo:42047:1,2016-12-04T01:30:00Z,27.8966,-93.5973,1010.01,11111222 
TABS,ioos:station:wmo:42047:1,2016-12-04T02:00:00Z,27.8966,-93.5973,1010.1,11111222 
TABS,ioos:station:wmo:42047:1,2016-12-04T02:30:00Z,27.8966,-93.5973,1010.86,11111222 
TABS,ioos:station:wmo:42047:1,2016-12-04T03:00:00Z,27.8966,-93.5973,1010.91,11111222 
TABS,ioos:station:wmo:42047:1,2016-12-04T03:30:00Z,27.8966,-93.5973,1010.43,11111222 
TABS,ioos:station:wmo:42047:1,2016-12-04T04:00:00Z,27.8966,-93.5973,1010.84,11111222 
TABS,ioos:station:wmo:42047:1,2016-12-04T04:30:00Z,27.8966,-93.5973,1010.45,11111222 
TABS,ioos:station:wmo:42047:1,2016-12-04T05:00:00Z,27.8966,-93.5973,1010.66,11111222 
TABS,ioos:station:wmo:42047:1,2016-12-04T05:30:00Z,27.8966,-93.5973,1010.35,11111222 
TABS,ioos:station:wmo:42047:1,2016-12-04T06:00:00Z,27.8966,-93.5973,1009.55,11111222 
TABS,ioos:station:wmo:42047:1,2016-12-04T06:30:00Z,27.8966,-93.5973,1009.51,11111222 
TABS,ioos:station:wmo:42047:1,2016-12-04T07:00:00Z,27.8966,-93.5973,1009.44,11111222 
TABS,ioos:station:wmo:42047:1,2016-12-04T07:30:00Z,27.8966,-93.5973,1009.64,11111222 
TABS,ioos:station:wmo:42047:1,2016-12-04T08:00:00Z,27.8966,-93.5973,1009.85,11111222 
TABS,ioos:station:wmo:42047:1,2016-12-04T08:30:00Z,27.8966,-93.5973,1009.37,11111222 
TABS,ioos:station:wmo:42047:1,2016-12-04T09:00:00Z,27.8966,-93.5973,1009.53,11111222 
TABS,ioos:station:wmo:42047:1,2016-12-04T09:30:00Z,27.8966,-93.5973,1010.06,11111222 
TABS,ioos:station:wmo:42047:1,2016-12-04T10:00:00Z,27.8966,-93.5973,1010.1,11111222 
TABS,ioos:station:wmo:42047:1,2016-12-04T10:30:00Z,27.8966,-93.5973,1010.47,11111222 
TABS,ioos:station:wmo:42047:1,2016-12-04T11:00:00Z,27.8966,-93.5973,1010.73,11111222 
TABS,ioos:station:wmo:42047:1,2016-12-04T11:30:00Z,27.8966,-93.5973,1010.57,11111222 
TABS,ioos:station:wmo:42047:1,2016-12-04T12:00:00Z,27.8966,-93.5973,1010.81,11111222 
TABS,ioos:station:wmo:42047:1,2016-12-04T12:30:00Z,27.8966,-93.5973,1010.83,11111222 
TABS,ioos:station:wmo:42047:1,2016-12-04T13:00:00Z,27.8966,-93.5973,1010.81,11111222 
TABS,ioos:station:wmo:42047:1,2016-12-04T13:30:00Z,27.8966,-93.5973,1011.21,11111222 
TABS,ioos:station:wmo:42047:1,2016-12-04T14:00:00Z,27.8966,-93.5973,1011.46,11111222 
TABS,ioos:station:wmo:42047:1,2016-12-04T14:30:00Z,27.8966,-93.5973,1011.81,11111222 
TABS,ioos:station:wmo:42047:1,2016-12-04T15:00:00Z,27.8966,-93.5973,1012.06,11111222 
TABS,ioos:station:wmo:42047:1,2016-12-04T15:30:00Z,27.8966,-93.5973,1012.58,11111222 
TABS,ioos:station:wmo:42047:1,2016-12-04T16:00:00Z,27.8966,-93.5973,1012.25,11111222 
TABS,ioos:station:wmo:42047:1,2016-12-04T16:30:00Z,27.8966,-93.5973,1011.76,11111222 
TABS,ioos:station:wmo:42047:1,2016-12-04T17:00:00Z,27.8966,-93.5973,1011.91,11111222 
TABS,ioos:station:wmo:42047:1,2016-12-04T17:30:00Z,27.8966,-93.5973,1010.35,11111222 
TABS,ioos:station:wmo:42047:1,2016-12-04T18:00:00Z,27.8966,-93.5973,1009.47,11111222 
TABS,ioos:station:wmo:42047:1,2016-12-04T18:30:00Z,27.8966,-93.5973,1009.25,11111222 
TABS,ioos:station:wmo:42047:1,2016-12-04T19:00:00Z,27.8966,-93.5973,1010.43,11111222 
TABS,ioos:station:wmo:42047:1,2016-12-04T19:30:00Z,27.8966,-93.5973,1010.61,11111222 
TABS,ioos:station:wmo:42047:1,2016-12-04T20:00:00Z,27.8966,-93.5973,1010.84,11111222 
TABS,ioos:station:wmo:42047:1,2016-12-04T20:30:00Z,27.8966,-93.5973,1011.13,11111222 
TABS,ioos:station:wmo:42047:1,2016-12-04T21:00:00Z,27.8966,-93.5973,1011.75,11111222 
TABS,ioos:station:wmo:42047:1,2016-12-04T21:30:00Z,27.8966,-93.5973,1012.03,11111222 
TABS,ioos:station:wmo:42047:1,2016-12-04T22:00:00Z,27.8966,-93.5973,1012.28,11111222 
TABS,ioos:station:wmo:42047:1,2016-12-04T22:30:00Z,27.8966,-93.5973,1011.95,11111222 
TABS,ioos:station:wmo:42047:1,2016-12-04T23:00:00Z,27.8966,-93.5973,1011.69,11111222 
TABS,ioos:station:wmo:42047:1,2016-12-04T23:30:00Z,27.8966,-93.5973,1011.54,11111222 
TABS,ioos:station:wmo:42047:1,2016-12-05T00:00:00Z,27.8966,-93.5973,1011.17,11111222 
TABS,ioos:station:wmo:42047:1,2016-12-05T00:30:00Z,27.8966,-93.5973,1011.29,11111222 
TABS,ioos:station:wmo:42047:1,2016-12-05T01:00:00Z,27.8966,-93.5973,1010.64,11111222 
TABS,ioos:station:wmo:42047:1,2016-12-05T01:30:00Z,27.8966,-93.5973,1012.02,11111222 
TABS,ioos:station:wmo:42047:1,2016-12-05T02:00:00Z,27.8966,-93.5973,1011.35,11111222 
TABS,ioos:station:wmo:42047:1,2016-12-05T02:30:00Z,27.8966,-93.5973,1011.2,11111222 
TABS,ioos:station:wmo:42047:1,2016-12-05T03:00:00Z,27.8966,-93.5973,1010.78,11111222 
TABS,ioos:station:wmo:42047:1,2016-12-05T03:30:00Z,27.8966,-93.5973,1010.91,11111222 
TABS,ioos:station:wmo:42047:1,2016-12-05T04:00:00Z,27.8966,-93.5973,1011.07,11111222 
TABS,ioos:station:wmo:42047:1,2016-12-05T04:30:00Z,27.8966,-93.5973,1010.25,11111222 
TABS,ioos:station:wmo:42047:1,2016-12-05T05:00:00Z,27.8966,-93.5973,1010.21,11111222 
TABS,ioos:station:wmo:42047:1,2016-12-05T05:30:00Z,27.8966,-93.5973,1009.8,11111222 
TABS,ioos:station:wmo:42047:1,2016-12-05T06:00:00Z,27.8966,-93.5973,1009.15,11111222 
TABS,ioos:station:wmo:42047:1,2016-12-05T06:30:00Z,27.8966,-93.5973,1009.15,11111222 
TABS,ioos:station:wmo:42047:1,2016-12-05T07:00:00Z,27.8966,-93.5973,1009.12,11111222 
TABS,ioos:station:wmo:42047:1,2016-12-05T07:30:00Z,27.8966,-93.5973,1008.9,11111222 
TABS,ioos:station:wmo:42047:1,2016-12-05T08:00:00Z,27.8966,-93.5973,1008.11,11111222 
TABS,ioos:station:wmo:42047:1,2016-12-05T08:30:00Z,27.8966,-93.5973,1008.15,11111222 
TABS,ioos:station:wmo:42047:1,2016-12-05T09:00:00Z,27.8966,-93.5973,1007.81,11111222 
TABS,ioos:station:wmo:42047:1,2016-12-05T09:30:00Z,27.8966,-93.5973,1006.99,11111222 
TABS,ioos:station:wmo:42047:1,2016-12-05T10:00:00Z,27.8966,-93.5973,1007.37,11111222 
TABS,ioos:station:wmo:42047:1,2016-12-05T10:30:00Z,27.8966,-93.5973,1006.94,11111222 
TABS,ioos:station:wmo:42047:1,2016-12-05T11:00:00Z,27.8966,-93.5973,1006.56,11111222 
TABS,ioos:station:wmo:42047:1,2016-12-05T11:30:00Z,27.8966,-93.5973,1006.76,11111222 
TABS,ioos:station:wmo:42047:1,2016-12-05T12:00:00Z,27.8966,-93.5973,1006.98,11111222 
TABS,ioos:station:wmo:42047:1,2016-12-05T12:30:00Z,27.8966,-93.5973,1007.13,11111222 
TABS,ioos:station:wmo:42047:1,2016-12-05T13:00:00Z,27.8966,-93.5973,1006.97,11111222 
TABS,ioos:station:wmo:42047:1,2016-12-05T13:30:00Z,27.8966,-93.5973,1007.59,11111222 
TABS,ioos:station:wmo:42047:1,2016-12-05T14:00:00Z,27.8966,-93.5973,1007.03,11111222 
TABS,ioos:station:wmo:42047:1,2016-12-05T14:30:00Z,27.8966,-93.5973,1007.22,11111222 
TABS,ioos:station:wmo:42047:1,2016-12-05T15:00:00Z,27.8966,-93.5973,1007.77,11111222 
TABS,ioos:station:wmo:42047:1,2016-12-05T15:30:00Z,27.8966,-93.5973,1007.4,11111222 
TABS,ioos:station:wmo:42047:1,2016-12-05T16:00:00Z,27.8966,-93.5973,1007.59,11111222 
TABS,ioos:station:wmo:42047:1,2016-12-05T16:30:00Z,27.8966,-93.5973,1007.44,11111222 
TABS,ioos:station:wmo:42047:1,2016-12-05T17:00:00Z,27.8966,-93.5973,1007.01,11111222 
TABS,ioos:station:wmo:42047:1,2016-12-05T17:30:00Z,27.8966,-93.5973,1006.87,11111222 
TABS,ioos:station:wmo:42047:1,2016-12-05T18:00:00Z,27.8966,-93.5973,1005.87,11111222 
TABS,ioos:station:wmo:42047:1,2016-12-05T18:30:00Z,27.8966,-93.5973,1005.94,11111222 
TABS,ioos:station:wmo:42047:1,2016-12-05T19:00:00Z,27.8966,-93.5973,1005.2,11111222 
TABS,ioos:station:wmo:42047:1,2016-12-05T19:30:00Z,27.8966,-93.5973,1005.16,11111222 
TABS,ioos:station:wmo:42047:1,2016-12-05T20:00:00Z,27.8966,-93.5973,1004.84,11111222 
TABS,ioos:station:wmo:42047:1,2016-12-05T20:30:00Z,27.8966,-93.5973,1004.75,11111222 
TABS,ioos:station:wmo:42047:1,2016-12-05T21:00:00Z,27.8966,-93.5973,1004.91,11111222 
TABS,ioos:station:wmo:42047:1,2016-12-05T21:30:00Z,27.8966,-93.5973,1005.11,11111222 
TABS,ioos:station:wmo:42047:1,2016-12-05T22:00:00Z,27.8966,-93.5973,1005.05,11111222 
TABS,ioos:station:wmo:42047:1,2016-12-05T22:30:00Z,27.8966,-93.5973,1005.27,11111222 
TABS,ioos:station:wmo:42047:1,2016-12-05T23:00:00Z,27.8966,-93.5973,1006.64,11111222 
TABS,ioos:station:wmo:42047:1,2016-12-05T23:30:00Z,27.8966,-93.5973,1006.35,11111222 
TABS,ioos:station:wmo:42047:1,2016-12-06T00:00:00Z,27.8966,-93.5973,1007.11,11111222 
TABS,ioos:station:wmo:42047:1,2016-12-06T00:30:00Z,27.8966,-93.5973,1007.56,11111222 
TABS,ioos:station:wmo:42047:1,2016-12-06T01:00:00Z,27.8966,-93.5973,1007.53,11111222 
TABS,ioos:station:wmo:42047:1,2016-12-06T01:30:00Z,27.8966,-93.5973,1007.58,11111222 
TABS,ioos:station:wmo:42047:1,2016-12-06T02:00:00Z,27.8966,-93.5973,1007.99,11111222 
TABS,ioos:station:wmo:42047:1,2016-12-06T02:30:00Z,27.8966,-93.5973,1008.21,11111222 
TABS,ioos:station:wmo:42047:1,2016-12-06T03:00:00Z,27.8966,-93.5973,1008.41,11111222 
TABS,ioos:station:wmo:42047:1,2016-12-06T03:30:00Z,27.8966,-93.5973,1009.06,11111222 
TABS,ioos:station:wmo:42047:1,2016-12-06T04:00:00Z,27.8966,-93.5973,1009.43,11111222 
TABS,ioos:station:wmo:42047:1,2016-12-06T04:30:00Z,27.8966,-93.5973,1009.81,11111222 
TABS,ioos:station:wmo:42047:1,2016-12-06T05:00:00Z,27.8966,-93.5973,1009.6,11111222 
TABS,ioos:station:wmo:42047:1,2016-12-06T05:30:00Z,27.8966,-93.5973,1009.68,11111222 
TABS,ioos:station:wmo:42047:1,2016-12-06T06:00:00Z,27.8966,-93.5973,1010.0,11111222 
TABS,ioos:station:wmo:42047:1,2016-12-06T06:30:00Z,27.8966,-93.5973,1009.98,11111222 
TABS,ioos:station:wmo:42047:1,2016-12-06T07:00:00Z,27.8966,-93.5973,1010.21,11111222 
TABS,ioos:station:wmo:42047:1,2016-12-06T07:30:00Z,27.8966,-93.5973,1010.49,11111222 
TABS,ioos:station:wmo:42047:1,2016-12-06T08:00:00Z,27.8966,-93.5973,1010.61,11111222 
TABS,ioos:station:wmo:42047:1,2016-12-06T08:30:00Z,27.8966,-93.5973,1010.69,11111222 
TABS,ioos:station:wmo:42047:1,2016-12-06T09:00:00Z,27.8966,-93.5973,1011.27,11111222 
TABS,ioos:station:wmo:42047:1,2016-12-06T09:30:00Z,27.8966,-93.5973,1011.26,11111222 
TABS,ioos:station:wmo:42047:1,2016-12-06T10:00:00Z,27.8966,-93.5973,1011.36,11111222 
TABS,ioos:station:wmo:42047:1,2016-12-06T10:30:00Z,27.8966,-93.5973,1011.53,11111222 
TABS,ioos:station:wmo:42047:1,2016-12-06T11:00:00Z,27.8966,-93.5973,1011.77,11111222 
TABS,ioos:station:wmo:42047:1,2016-12-06T11:30:00Z,27.8966,-93.5973,1011.99,11111222 
TABS,ioos:station:wmo:42047:1,2016-12-06T12:00:00Z,27.8966,-93.5973,1011.8,11111222 
TABS,ioos:station:wmo:42047:1,2016-12-06T12:30:00Z,27.8966,-93.5973,1012.12,11111222 
TABS,ioos:station:wmo:42047:1,2016-12-06T13:00:00Z,27.8966,-93.5973,1012.48,11111222 
TABS,ioos:station:wmo:42047:1,2016-12-06T13:30:00Z,27.8966,-93.5973,1013.06,11111222 
TABS,ioos:station:wmo:42047:1,2016-12-06T14:00:00Z,27.8966,-93.5973,1013.53,11111222 
TABS,ioos:station:wmo:42047:1,2016-12-06T14:30:00Z,27.8966,-93.5973,1013.84,11111222 
TABS,ioos:station:wmo:42047:1,2016-12-06T15:00:00Z,27.8966,-93.5973,1014.1,11111222 
TABS,ioos:station:wmo:42047:1,2016-12-06T15:30:00Z,27.8966,-93.5973,1014.37,11111222 
TABS,ioos:station:wmo:42047:1,2016-12-06T16:00:00Z,27.8966,-93.5973,1014.71,11111222 
TABS,ioos:station:wmo:42047:1,2016-12-06T16:30:00Z,27.8966,-93.5973,1014.58,11111222 
TABS,ioos:station:wmo:42047:1,2016-12-06T17:00:00Z,27.8966,-93.5973,1014.44,11111222 
TABS,ioos:station:wmo:42047:1,2016-12-06T17:30:00Z,27.8966,-93.5973,1014.04,11111222 
TABS,ioos:station:wmo:42047:1,2016-12-06T18:00:00Z,27.8966,-93.5973,1013.89,11111222 
TABS,ioos:station:wmo:42047:1,2016-12-06T18:30:00Z,27.8966,-93.5973,1013.59,11111222 